QPF
0.00 0.00 0.01 0.03 0.03 0.03 0.03 0.03 0.03 0.03 0.02 0.02 0.01 0.01 0.01 0.01 0.01 0.01 0.01 0.01 0.00 0.00 0.01 0.02 0.02 0.01 0.00 0.00 0.00 0.00 0.01 0.01 0.01 0.01 0.01 0.00 0.00 0.00 0.00 0.00 0.00 0.00 0.01
0.00 0.01 0.01 0.02 0.03 0.03 0.03 0.03 0.03 0.02 0.03 0.02 0.02 0.01 0.01 0.01 0.02 0.02 0.01 0.01 0.00 0.00 0.01 0.03 0.03 0.01 0.01 0.00 0.00 0.00 0.01 0.00 0.00 0.00 0.00 0.00 0.00 0.00 0.00 0.00 0.00 0.01 0.01
0.00 0.01 0.02 0.02 0.03 0.03 0.03 0.03 0.03 0.03 0.03 0.04 0.03 0.02 0.02 0.03 0.03 0.01 0.01 0.01 0.00 0.01 0.01 0.03 0.04 0.02 0.01 0.00 0.00 0.00 0.01 0.00 0.00 0.00 0.00 0.00 0.00 0.00 0.00 0.00 0.01 0.01 0.00
0.00 0.01 0.01 0.02 0.03 0.03 0.02 0.02 0.03 0.03 0.03 0.04 0.05 0.03 0.02 0.02 0.02 0.02 0.01 0.01 0.01 0.01 0.01 0.03 0.03 0.01 0.00 0.00 0.00 0.00 0.00 0.00 0.00 0.00 0.00 0.00 0.00 0.01 0.00 0.00 0.00 0.00 0.00
0.00 0.01 0.01 0.02 0.04 0.04 0.03 0.02 0.02 0.03 0.03 0.03 0.05 0.05 0.03 0.03 0.03 0.02 0.02 0.02 0.01 0.01 0.01 0.01 0.01 0.00 0.00 0.00 0.00 0.00 0.00 0.00 0.00 0.00 0.00 0.00 0.00 0.01 0.00 0.00 0.00 0.00 0.00
0.00 0.01 0.01 0.02 0.04 0.04 0.04 0.03 0.03 0.03 0.03 0.03 0.04 0.05 0.05 0.03 0.02 0.03 0.03 0.02 0.02 0.02 0.02 0.01 0.01 0.00 0.00 0.00 0.00 0.00 0.00 0.00 0.00 0.00 0.00 0.00 0.00 0.01 0.00 0.00 0.00 0.00 0.00
0.01 0.01 0.01 0.02 0.04 0.04 0.04 0.04 0.03 0.03 0.03 0.03 0.04 0.05 0.06 0.06 0.04 0.04 0.04 0.03 0.03 0.03 0.02 0.01 0.01 0.01 0.00 0.00 0.00 0.00 0.00 0.00 0.00 0.00 0.00 0.00 0.00 0.01 0.00 0.00 0.00 0.00 0.00
0.01 0.02 0.02 0.03 0.04 0.05 0.04 0.04 0.04 0.04 0.03 0.03 0.03 0.04 0.05 0.07 0.07 0.05 0.05 0.03 0.03 0.02 0.02 0.01 0.01 0.01 0.01 0.00 0.00 0.00 0.00 0.00 0.00 0.00 0.00 0.00 0.00 0.01 0.00 0.00 0.00 0.00 0.00
0.02 0.02 0.03 0.03 0.04 0.04 0.04 0.05 0.04 0.04 0.03 0.04 0.04 0.03 0.03 0.04 0.05 0.05 0.04 0.04 0.03 0.03 0.02 0.02 0.02 0.02 0.01 0.01 0.01 0.00 0.00 0.00 0.00 0.00 0.00 0.00 0.00 0.00 0.00 0.00 0.00 0.00 0.00
0.03 0.03 0.03 0.04 0.04 0.03 0.04 0.03 0.05 0.04 0.03 0.03 0.05 0.04 0.02 0.02 0.03 0.03 0.03 0.03 0.03 0.03 0.02 0.02 0.03 0.03 0.02 0.01 0.00 0.00 0.00 0.00 0.00 0.00 0.00 0.00 0.00 0.00 0.00 0.00 0.00 0.00 0.00
0.02 0.04 0.05 0.04 0.04 0.05 0.04 0.03 0.03 0.05 0.04 0.04 0.04 0.04 0.02 0.01 0.02 0.02 0.03 0.02 0.03 0.02 0.02 0.03 0.03 0.03 0.02 0.01 0.00 0.00 0.00 0.00 0.00 0.00 0.00 0.00 0.00 0.00 0.00 0.00 0.00 0.00 0.00
0.01 0.02 0.04 0.06 0.06 0.06 0.05 0.05 0.05 0.04 0.06 0.06 0.05 0.04 0.03 0.03 0.02 0.01 0.02 0.03 0.03 0.02 0.02 0.03 0.03 0.03 0.02 0.01 0.01 0.00 0.00 0.00 0.00 0.00 0.00 0.00 0.00 0.00 0.00 0.01 0.00 0.00 0.00
0.01 0.01 0.02 0.04 0.07 0.06 0.05 0.05 0.05 0.05 0.05 0.06 0.07 0.05 0.03 0.03 0.03 0.02 0.02 0.03 0.04 0.03 0.03 0.03 0.03 0.03 0.03 0.02 0.01 0.01 0.00 0.00 0.00 0.00 0.00 0.00 0.00 0.00 0.01 0.01 0.01 0.00 0.00
0.02 0.02 0.02 0.03 0.05 0.07 0.06 0.04 0.05 0.06 0.06 0.06 0.06 0.07 0.05 0.04 0.03 0.03 0.03 0.03 0.05 0.05 0.04 0.04 0.04 0.04 0.04 0.03 0.02 0.01 0.01 0.00 0.00 0.00 0.00 0.00 0.00 0.00 0.01 0.03 0.02 0.01 0.00
0.03 0.03 0.04 0.05 0.04 0.06 0.07 0.06 0.04 0.04 0.05 0.04 0.05 0.05 0.06 0.05 0.04 0.04 0.04 0.04 0.04 0.05 0.05 0.05 0.05 0.05 0.05 0.05 0.05 0.04 0.02 0.01 0.00 0.00 0.00 0.00 0.00 0.00 0.01 0.02 0.02 0.02 0.02
0.03 0.03 0.03 0.05 0.04 0.04 0.06 0.07 0.05 0.04 0.04 0.04 0.03 0.03 0.05 0.06 0.05 0.04 0.04 0.05 0.05 0.05 0.05 0.06 0.05 0.05 0.05 0.04 0.04 0.04 0.03 0.02 0.01 0.00 0.00 0.00 0.00 0.00 0.00 0.01 0.02 0.02 0.03
0.02 0.03 0.04 0.04 0.03 0.04 0.05 0.06 0.06 0.05 0.04 0.04 0.04 0.03 0.03 0.05 0.06 0.05 0.05 0.05 0.05 0.06 0.06 0.07 0.07 0.07 0.05 0.05 0.04 0.04 0.03 0.02 0.01 0.01 0.00 0.00 0.00 0.00 0.00 0.01 0.01 0.02 0.02
0.01 0.01 0.02 0.02 0.02 0.03 0.04 0.04 0.05 0.04 0.03 0.02 0.03 0.03 0.03 0.03 0.05 0.05 0.04 0.05 0.07 0.07 0.07 0.07 0.07 0.07 0.06 0.04 0.03 0.03 0.03 0.03 0.02 0.02 0.01 0.01 0.00 0.00 0.00 0.00 0.01 0.02 0.02
0.00 0.00 0.01 0.01 0.01 0.02 0.02 0.03 0.03 0.04 0.03 0.02 0.01 0.01 0.02 0.03 0.04 0.05 0.04 0.04 0.05 0.06 0.07 0.07 0.07 0.07 0.06 0.05 0.05 0.05 0.05 0.04 0.04 0.03 0.02 0.02 0.01 0.01 0.00 0.00 0.00 0.00 0.01
0.00 0.00 0.00 0.01 0.01 0.01 0.01 0.01 0.02 0.02 0.03 0.02 0.01 0.02 0.02 0.02 0.03 0.05 0.05 0.05 0.05 0.05 0.05 0.05 0.05 0.05 0.05 0.05 0.04 0.04 0.04 0.05 0.05 0.06 0.05 0.04 0.03 0.02 0.01 0.01 0.01 0.01 0.00
0.00 0.01 0.01 0.01 0.00 0.01 0.01 0.01 0.01 0.01 0.01 0.02 0.01 0.01 0.02 0.03 0.03 0.05 0.06 0.06 0.07 0.06 0.06 0.05 0.04 0.04 0.04 0.05 0.04 0.04 0.03 0.03 0.03 0.04 0.06 0.06 0.05 0.04 0.03 0.02 0.02 0.02 0.01
0.00 0.00 0.01 0.01 0.01 0.01 0.01 0.00 0.00 0.00 0.01 0.01 0.01 0.01 0.01 0.02 0.03 0.04 0.06 0.07 0.08 0.09 0.08 0.07 0.05 0.05 0.05 0.05 0.05 0.05 0.04 0.03 0.02 0.02 0.03 0.04 0.04 0.05 0.04 0.04 0.04 0.04 0.04
0.01 0.00 0.00 0.00 0.00 0.00 0.00 0.00 0.00 0.00 0.00 0.00 0.00 0.01 0.01 0.02 0.04 0.05 0.05 0.06 0.06 0.09 0.12 0.09 0.06 0.05 0.05 0.05 0.06 0.07 0.06 0.05 0.03 0.03 0.02 0.03 0.04 0.06 0.07 0.08 0.07 0.07 0.06
0.01 0.01 0.01 0.00 0.00 0.00 0.00 0.00 0.00 0.00 0.00 0.00 0.00 0.00 0.01 0.01 0.03 0.05 0.06 0.07 0.07 0.07 0.09 0.11 0.10 0.08 0.05 0.04 0.04 0.06 0.06 0.06 0.05 0.05 0.04 0.04 0.04 0.04 0.04 0.04 0.04 0.04 0.04
0.00 0.01 0.01 0.01 0.00 0.00 0.00 0.00 0.00 0.00 0.00 0.00 0.00 0.00 0.01 0.01 0.01 0.03 0.05 0.06 0.06 0.06 0.06 0.07 0.07 0.08 0.07 0.06 0.04 0.04 0.05 0.06 0.05 0.04 0.03 0.03 0.03 0.02 0.02 0.02 0.03 0.04 0.04
0.00 0.00 0.00 0.01 0.01 0.01 0.01 0.00 0.00 0.00 0.00 0.01 0.01 0.01 0.01 0.01 0.01 0.02 0.03 0.04 0.04 0.04 0.04 0.05 0.06 0.07 0.07 0.06 0.05 0.04 0.04 0.05 0.05 0.05 0.03 0.03 0.03 0.03 0.03 0.03 0.03 0.02 0.02
MSLP
1017.32 1016.98 1016.61 1016.32 1016.12 1016.04 1016.05 1016.12 1016.19 1016.24 1016.26 1016.26 1016.25 1016.27 1016.33 1016.44 1016.59 1016.75 1016.87 1016.95 1016.96 1016.91 1016.83 1016.74 1016.67 1016.64 1016.64 1016.66 1016.69 1016.71 1016.71 1016.68 1016.65 1016.63 1016.63 1016.67 1016.74 1016.83 1016.92 1016.98 1017.00 1016.97 1016.90
1017.52 1017.15 1016.77 1016.46 1016.27 1016.18 1016.20 1016.26 1016.33 1016.37 1016.38 1016.36 1016.35 1016.36 1016.43 1016.55 1016.71 1016.87 1017.01 1017.09 1017.11 1017.08 1017.01 1016.94 1016.89 1016.87 1016.88 1016.92 1016.95 1016.96 1016.95 1016.91 1016.86 1016.82 1016.80 1016.84 1016.90 1017.00 1017.10 1017.17 1017.21 1017.19 1017.13
1017.79 1017.38 1016.98 1016.64 1016.43 1016.33 1016.33 1016.38 1016.44 1016.48 1016.48 1016.46 1016.45 1016.46 1016.53 1016.65 1016.80 1016.96 1017.09 1017.17 1017.20 1017.17 1017.12 1017.08 1017.05 1017.06 1017.10 1017.15 1017.19 1017.20 1017.18 1017.12 1017.05 1016.98 1016.96 1016.97 1017.03 1017.12 1017.22 1017.31 1017.36 1017.37 1017.34
1018.10 1017.67 1017.24 1016.88 1016.63 1016.51 1016.48 1016.51 1016.55 1016.57 1016.57 1016.55 1016.53 1016.54 1016.60 1016.71 1016.85 1016.99 1017.11 1017.18 1017.21 1017.20 1017.17 1017.15 1017.16 1017.20 1017.27 1017.35 1017.40 1017.41 1017.39 1017.32 1017.23 1017.14 1017.09 1017.09 1017.13 1017.22 1017.32 1017.42 1017.49 1017.53 1017.53
1018.44 1018.00 1017.55 1017.17 1016.91 1016.75 1016.68 1016.68 1016.68 1016.68 1016.65 1016.61 1016.58 1016.59 1016.63 1016.72 1016.84 1016.96 1017.06 1017.13 1017.16 1017.16 1017.16 1017.18 1017.22 1017.30 1017.40 1017.50 1017.57 1017.60 1017.57 1017.49 1017.39 1017.29 1017.23 1017.20 1017.23 1017.30 1017.40 1017.51 1017.60 1017.66 1017.70
1018.78 1018.34 1017.90 1017.52 1017.24 1017.06 1016.95 1016.89 1016.85 1016.79 1016.73 1016.66 1016.60 1016.59 1016.61 1016.68 1016.78 1016.88 1016.96 1017.02 1017.06 1017.08 1017.10 1017.15 1017.24 1017.35 1017.48 1017.61 1017.69 1017.73 1017.70 1017.63 1017.52 1017.42 1017.34 1017.31 1017.32 1017.38 1017.48 1017.58 1017.69 1017.78 1017.85
1019.07 1018.67 1018.26 1017.91 1017.63 1017.43 1017.28 1017.16 1017.05 1016.93 1016.81 1016.69 1016.60 1016.55 1016.55 1016.59 1016.67 1016.75 1016.82 1016.88 1016.92 1016.96 1017.01 1017.09 1017.20 1017.35 1017.50 1017.64 1017.74 1017.78 1017.76 1017.69 1017.60 1017.50 1017.42 1017.38 1017.39 1017.45 1017.54 1017.65 1017.76 1017.87 1017.97
1019.29 1018.95 1018.60 1018.30 1018.04 1017.82 1017.64 1017.46 1017.28 1017.09 1016.90 1016.72 1016.58 1016.49 1016.46 1016.48 1016.53 1016.60 1016.66 1016.72 1016.77 1016.82 1016.89 1016.99 1017.12 1017.28 1017.44 1017.58 1017.68 1017.72 1017.71 1017.65 1017.57 1017.48 1017.42 1017.40 1017.42 1017.48 1017.57 1017.68 1017.80 1017.93 1018.05
1019.43 1019.16 1018.90 1018.65 1018.43 1018.21 1018.00 1017.77 1017.53 1017.26 1017.00 1016.77 1016.58 1016.45 1016.38 1016.37 1016.40 1016.44 1016.50 1016.55 1016.59 1016.65 1016.73 1016.84 1016.97 1017.12 1017.27 1017.40 1017.49 1017.53 1017.52 1017.47 1017.41 1017.36 1017.33 1017.33 1017.37 1017.45 1017.55 1017.67 1017.79 1017.92 1018.06
1019.50 1019.32 1019.13 1018.95 1018.76 1018.56 1018.32 1018.06 1017.75 1017.43 1017.11 1016.82 1016.59 1016.42 1016.32 1016.28 1016.28 1016.31 1016.34 1016.37 1016.41 1016.46 1016.53 1016.63 1016.75 1016.88 1017.01 1017.11 1017.18 1017.20 1017.19 1017.16 1017.12 1017.11 1017.12 1017.16 1017.24 1017.34 1017.46 1017.58 1017.71 1017.84 1017.98
1019.55 1019.43 1019.31 1019.18 1019.03 1018.83 1018.59 1018.29 1017.95 1017.58 1017.22 1016.90 1016.64 1016.44 1016.32 1016.24 1016.21 1016.20 1016.20 1016.20 1016.21 1016.23 1016.28 1016.36 1016.45 1016.55 1016.65 1016.72 1016.76 1016.77 1016.75 1016.73 1016.72 1016.74 1016.80 1016.89 1017.01 1017.15 1017.29 1017.42 1017.55 1017.68 1017.81
1019.60 1019.53 1019.45 1019.36 1019.22 1019.03 1018.77 1018.46 1018.09 1017.71 1017.34 1017.00 1016.73 1016.52 1016.37 1016.26 1016.19 1016.13 1016.08 1016.03 1015.99 1015.98 1015.99 1016.03 1016.09 1016.16 1016.22 1016.26 1016.27 1016.26 1016.23 1016.22 1016.23 1016.29 1016.40 1016.54 1016.71 1016.88 1017.04 1017.19 1017.31 1017.43 1017.54
1019.68 1019.63 1019.57 1019.49 1019.36 1019.16 1018.90 1018.57 1018.20 1017.82 1017.45 1017.13 1016.86 1016.64 1016.48 1016.34 1016.22 1016.10 1015.99 1015.88 1015.78 1015.71 1015.67 1015.67 1015.70 1015.73 1015.76 1015.77 1015.75 1015.72 1015.68 1015.67 1015.70 1015.79 1015.93 1016.12 1016.33 1016.54 1016.72 1016.88 1017.00 1017.11 1017.21
1019.80 1019.76 1019.70 1019.61 1019.46 1019.25 1018.97 1018.64 1018.28 1017.92 1017.58 1017.28 1017.03 1016.82 1016.65 1016.48 1016.31 1016.13 1015.94 1015.75 1015.58 1015.44 1015.36 1015.31 1015.30 1015.30 1015.30 1015.28 1015.23 1015.18 1015.13 1015.11 1015.15 1015.25 1015.42 1015.64 1015.88 1016.13 1016.34 1016.51 1016.64 1016.73 1016.81
1019.95 1019.91 1019.84 1019.72 1019.56 1019.32 1019.04 1018.71 1018.36 1018.02 1017.72 1017.45 1017.23 1017.04 1016.86 1016.67 1016.45 1016.20 1015.93 1015.67 1015.42 1015.22 1015.07 1014.98 1014.93 1014.90 1014.87 1014.82 1014.75 1014.67 1014.60 1014.57 1014.60 1014.70 1014.88 1015.12 1015.38 1015.65 1015.89 1016.08 1016.21 1016.31 1016.38
1020.08 1020.04 1019.97 1019.84 1019.65 1019.40 1019.11 1018.78 1018.45 1018.14 1017.88 1017.65 1017.46 1017.28 1017.10 1016.89 1016.63 1016.32 1015.99 1015.64 1015.33 1015.06 1014.85 1014.71 1014.62 1014.55 1014.49 1014.41 1014.31 1014.20 1014.10 1014.03 1014.03 1014.12 1014.29 1014.53 1014.81 1015.10 1015.36 1015.57 1015.73 1015.84 1015.92
1020.14 1020.13 1020.06 1019.94 1019.74 1019.49 1019.20 1018.88 1018.57 1018.29 1018.05 1017.86 1017.70 1017.54 1017.35 1017.12 1016.84 1016.49 1016.10 1015.70 1015.32 1014.99 1014.73 1014.53 1014.39 1014.28 1014.18 1014.06 1013.92 1013.76 1013.62 1013.51 1013.47 1013.52 1013.66 1013.89 1014.16 1014.46 1014.75 1014.99 1015.18 1015.32 1015.42
1020.07 1020.12 1020.09 1020.00 1019.82 1019.59 1019.31 1019.01 1018.72 1018.46 1018.24 1018.07 1017.92 1017.77 1017.59 1017.36 1017.06 1016.69 1016.27 1015.83 1015.41 1015.03 1014.72 1014.47 1014.27 1014.11 1013.95 1013.78 1013.59 1013.38 1013.18 1013.02 1012.92 1012.91 1013.01 1013.20 1013.46 1013.76 1014.06 1014.33 1014.56 1014.74 1014.88
1019.85 1019.98 1020.03 1019.99 1019.86 1019.67 1019.42 1019.14 1018.87 1018.63 1018.42 1018.26 1018.12 1017.97 1017.80 1017.57 1017.28 1016.91 1016.49 1016.04 1015.60 1015.19 1014.83 1014.53 1014.28 1014.05 1013.84 1013.60 1013.35 1013.08 1012.81 1012.58 1012.41 1012.34 1012.37 1012.51 1012.73 1013.01 1013.32 1013.61 1013.88 1014.11 1014.29
1019.48 1019.71 1019.85 1019.89 1019.84 1019.71 1019.51 1019.27 1019.02 1018.79 1018.59 1018.42 1018.27 1018.13 1017.96 1017.75 1017.48 1017.13 1016.74 1016.31 1015.87 1015.45 1015.06 1014.72 1014.42 1014.13 1013.85 1013.55 1013.23 1012.90 1012.56 1012.26 1012.01 1011.86 1011.82 1011.88 1012.05 1012.29 1012.57 1012.88 1013.17 1013.44 1013.67
1018.99 1019.32 1019.56 1019.70 1019.74 1019.69 1019.56 1019.36 1019.15 1018.93 1018.72 1018.54 1018.38 1018.23 1018.07 1017.88 1017.65 1017.35 1017.01 1016.62 1016.21 1015.80 1015.41 1015.04 1014.69 1014.36 1014.01 1013.66 1013.28 1012.89 1012.49 1012.12 1011.80 1011.56 1011.43 1011.40 1011.49 1011.66 1011.90 1012.19 1012.49 1012.78 1013.05
1018.43 1018.85 1019.19 1019.43 1019.57 1019.60 1019.55 1019.41 1019.23 1019.02 1018.81 1018.62 1018.44 1018.29 1018.14 1017.97 1017.79 1017.56 1017.28 1016.95 1016.60 1016.23 1015.84 1015.47 1015.09 1014.72 1014.34 1013.95 1013.53 1013.10 1012.66 1012.23 1011.84 1011.52 1011.29 1011.16 1011.14 1011.22 1011.39 1011.62 1011.89 1012.18 1012.47
1017.87 1018.35 1018.76 1019.09 1019.32 1019.44 1019.47 1019.40 1019.26 1019.08 1018.87 1018.66 1018.47 1018.30 1018.16 1018.03 1017.89 1017.73 1017.53 1017.28 1017.00 1016.68 1016.33 1015.96 1015.59 1015.21 1014.82 1014.41 1013.98 1013.53 1013.07 1012.61 1012.17 1011.78 1011.45 1011.21 1011.06 1011.02 1011.08 1011.23 1011.44 1011.70 1011.97
1017.36 1017.87 1018.32 1018.70 1019.01 1019.22 1019.32 1019.32 1019.24 1019.08 1018.88 1018.66 1018.46 1018.29 1018.16 1018.05 1017.96 1017.86 1017.74 1017.58 1017.37 1017.11 1016.81 1016.48 1016.13 1015.76 1015.39 1015.00 1014.59 1014.16 1013.71 1013.24 1012.77 1012.32 1011.90 1011.55 1011.28 1011.11 1011.04 1011.07 1011.19 1011.38 1011.62
1016.92 1017.41 1017.87 1018.29 1018.65 1018.92 1019.10 1019.17 1019.14 1019.02 1018.84 1018.63 1018.43 1018.26 1018.13 1018.05 1018.00 1017.96 1017.91 1017.81 1017.68 1017.48 1017.24 1016.95 1016.64 1016.31 1015.97 1015.63 1015.27 1014.88 1014.47 1014.02 1013.55 1013.06 1012.57 1012.12 1011.74 1011.43 1011.23 1011.14 1011.15 1011.26 1011.43
1016.54 1016.98 1017.42 1017.84 1018.23 1018.55 1018.80 1018.93 1018.96 1018.89 1018.75 1018.56 1018.37 1018.21 1018.09 1018.03 1018.01 1018.01 1018.00 1017.97 1017.88 1017.74 1017.55 1017.31 1017.04 1016.77 1016.48 1016.20 1015.91 1015.59 1015.24 1014.84 1014.39 1013.89 1013.37 1012.84 1012.36 1011.94 1011.61 1011.40 1011.30 1011.32 1011.41
Thickness
5752 5753 5750 5751 5751 5750 5750 5749 5749 5749 5748 5747 5746 5745 5744 5743 5742 5741 5740 5739 5738 5738 5737 5737 5736 5734 5734 5733 5732 5732 5731 5730 5730 5729 5728 5728 5727 5726 5726 5725 5726 5726 5723
5750 5749 5746 5747 5747 5747 5746 5746 5746 5745 5745 5744 5744 5743 5742 5741 5740 5739 5738 5737 5736 5735 5735 5734 5733 5732 5731 5730 5729 5728 5728 5727 5726 5725 5725 5724 5723 5723 5722 5722 5722 5721 5719
5745 5745 5743 5742 5743 5743 5743 5742 5742 5742 5741 5741 5740 5740 5739 5738 5737 5736 5735 5735 5734 5733 5732 5731 5730 5729 5728 5727 5726 5725 5724 5723 5722 5722 5723 5724 5721 5719 5718 5718 5717 5716 5715
5739 5739 5739 5737 5738 5738 5738 5738 5738 5738 5738 5737 5737 5736 5736 5735 5734 5733 5733 5732 5731 5730 5729 5728 5727 5726 5724 5723 5722 5722 5720 5719 5719 5719 5722 5722 5720 5716 5715 5714 5713 5712 5711
5733 5734 5733 5732 5732 5733 5733 5734 5733 5734 5734 5734 5734 5733 5733 5732 5731 5730 5730 5729 5728 5727 5726 5725 5724 5722 5721 5720 5719 5718 5717 5716 5716 5717 5718 5717 5716 5712 5711 5710 5709 5708 5707
5727 5728 5727 5726 5727 5728 5728 5728 5729 5729 5729 5730 5730 5729 5729 5729 5728 5727 5727 5726 5724 5723 5723 5722 5720 5719 5718 5717 5716 5714 5713 5713 5713 5715 5714 5713 5712 5709 5708 5707 5705 5704 5703
5721 5721 5721 5720 5721 5722 5722 5723 5724 5724 5725 5725 5725 5725 5725 5725 5724 5724 5723 5722 5721 5720 5719 5718 5717 5716 5714 5713 5712 5711 5710 5709 5711 5711 5710 5709 5707 5705 5704 5703 5702 5701 5700
5713 5714 5714 5714 5715 5716 5716 5717 5718 5719 5719 5720 5720 5721 5721 5721 5721 5720 5719 5719 5718 5717 5716 5715 5714 5712 5711 5710 5709 5707 5706 5706 5707 5708 5707 5706 5702 5701 5700 5699 5698 5696 5695
5705 5707 5708 5709 5709 5710 5711 5711 5712 5713 5714 5715 5715 5715 5716 5716 5716 5716 5715 5715 5714 5713 5712 5711 5710 5709 5708 5706 5705 5704 5703 5702 5705 5704 5703 5702 5698 5697 5696 5694 5693 5692 5691
5697 5699 5701 5702 5703 5705 5705 5706 5706 5707 5708 5709 5710 5710 5710 5711 5711 5711 5711 5711 5710 5709 5709 5708 5707 5705 5704 5703 5702 5700 5699 5698 5701 5700 5699 5697 5694 5693 5692 5690 5689 5688 5686
5688 5691 5693 5695 5697 5698 5700 5700 5701 5702 5703 5703 5704 5704 5705 5707 5707 5707 5707 5706 5706 5705 5704 5704 5703 5701 5700 5699 5698 5697 5695 5697 5698 5697 5695 5692 5690 5689 5687 5686 5685 5683 5682
5680 5683 5686 5688 5690 5691 5693 5695 5696 5697 5697 5698 5700 5700 5701 5702 5703 5703 5702 5702 5701 5701 5700 5699 5698 5697 5697 5697 5695 5693 5694 5694 5694 5693 5691 5688 5686 5684 5683 5682 5680 5679 5677
5674 5675 5678 5680 5681 5684 5686 5688 5689 5690 5691 5693 5694 5695 5695 5696 5697 5697 5697 5697 5697 5696 5696 5695 5695 5695 5695 5695 5693 5692 5692 5691 5690 5689 5687 5683 5681 5680 5679 5678 5676 5674 5673
5666 5668 5670 5672 5674 5675 5678 5680 5682 5683 5685 5686 5687 5688 5689 5690 5691 5692 5692 5693 5693 5693 5693 5693 5692 5692 5691 5691 5690 5689 5688 5687 5686 5684 5683 5679 5677 5676 5675 5673 5672 5670 5668
5658 5660 5662 5664 5666 5668 5670 5672 5674 5675 5677 5678 5679 5680 5682 5683 5684 5685 5687 5687 5688 5688 5688 5688 5688 5688 5687 5686 5685 5684 5684 5683 5681 5680 5678 5674 5672 5671 5670 5669 5667 5666 5664
5650 5652 5654 5656 5658 5660 5663 5664 5666 5667 5668 5670 5671 5672 5674 5675 5677 5678 5679 5680 5681 5682 5682 5682 5683 5682 5681 5680 5680 5679 5679 5678 5677 5675 5674 5671 5668 5666 5664 5663 5662 5661 5659
5642 5644 5646 5648 5650 5652 5654 5656 5658 5659 5660 5662 5663 5664 5666 5667 5669 5670 5672 5673 5674 5675 5675 5676 5676 5675 5675 5674 5674 5673 5672 5672 5671 5670 5668 5667 5664 5661 5659 5658 5656 5655 5654
5634 5635 5637 5639 5641 5643 5645 5647 5650 5651 5652 5653 5654 5656 5658 5659 5661 5662 5664 5666 5667 5667 5668 5669 5669 5668 5668 5667 5667 5667 5666 5665 5664 5664 5662 5661 5659 5657 5655 5652 5651 5649 5648
5626 5627 5628 5630 5632 5634 5636 5638 5640 5642 5643 5644 5645 5647 5650 5652 5653 5655 5657 5658 5658 5659 5660 5661 5662 5661 5661 5660 5660 5660 5660 5659 5658 5657 5656 5655 5653 5651 5650 5647 5645 5643 5641
5618 5620 5621 5622 5624 5625 5627 5630 5632 5634 5635 5635 5637 5639 5642 5644 5645 5647 5649 5650 5651 5652 5653 5653 5654 5653 5653 5652 5652 5652 5652 5652 5652 5651 5650 5648 5646 5645 5643 5641 5639 5637 5634
5610 5612 5613 5614 5616 5617 5619 5622 5625 5626 5628 5629 5630 5632 5634 5636 5638 5639 5640 5642 5643 5644 5646 5646 5646 5645 5644 5643 5643 5644 5645 5645 5645 5644 5643 5642 5640 5638 5636 5634 5632 5630 5629
5603 5604 5605 5606 5608 5609 5610 5613 5615 5617 5619 5621 5622 5624 5626 5628 5630 5631 5632 5633 5635 5636 5637 5638 5638 5637 5636 5635 5635 5635 5636 5637 5637 5636 5635 5634 5633 5631 5629 5627 5625 5623 5622
5597 5597 5597 5598 5599 5600 5602 5603 5605 5608 5611 5613 5614 5616 5618 5620 5621 5623 5624 5625 5627 5628 5629 5630 5630 5630 5629 5628 5628 5629 5628 5631 5630 5629 5627 5626 5625 5624 5622 5620 5618 5616 5614
5590 5589 5589 5590 5591 5592 5593 5595 5598 5601 5604 5606 5607 5608 5610 5611 5613 5614 5615 5617 5618 5619 5621 5622 5622 5622 5622 5621 5619 5620 5621 5621 5618 5620 5619 5618 5616 5615 5614 5612 5611 5609 5607
5584 5582 5582 5583 5584 5585 5586 5588 5590 5593 5596 5598 5599 5601 5602 5604 5605 5607 5608 5609 5610 5611 5613 5614 5614 5614 5614 5614 5613 5612 5611 5610 5609 5610 5611 5610 5608 5607 5606 5605 5604 5602 5600
5578 5576 5576 5577 5578 5578 5579 5581 5583 5585 5588 5590 5591 5593 5595 5596 5598 5599 5600 5601 5602 5603 5605 5606 5606 5606 5606 5606 5606 5605 5604 5603 5602 5602 5602 5602 5601 5600 5597 5596 5595 5594 5593